Year,Month,Day,Hour,Minute,Value (Times are PST for temperature in C)
2021,03,31,08,11,4.10
2021,03,31,08,12,4.10
2021,03,31,08,13,4.10
2021,03,31,08,14,4.20
2021,03,31,08,15,4.20
2021,03,31,08,16,4.20
2021,03,31,08,17,4.20
2021,03,31,08,18,4.20
2021,03,31,08,19,4.20
2021,03,31,08,20,4.20
2021,03,31,08,21,4.20
2021,03,31,08,22,4.30
2021,03,31,08,23,4.30
2021,03,31,08,24,4.30
2021,03,31,08,25,4.30
2021,03,31,08,26,4.40
2021,03,31,08,27,4.40
2021,03,31,08,28,4.40
2021,03,31,08,29,4.50
2021,03,31,08,30,4.50
2021,03,31,08,31,4.50
2021,03,31,08,32,4.60
2021,03,31,08,33,4.60
2021,03,31,08,34,4.70
2021,03,31,08,35,4.70
2021,03,31,08,36,4.80
2021,03,31,08,37,4.80
2021,03,31,08,38,4.80
2021,03,31,08,39,4.80
2021,03,31,08,40,4.80
2021,03,31,08,41,4.80
2021,03,31,08,42,4.90
2021,03,31,08,43,4.80
2021,03,31,08,44,4.80
2021,03,31,08,45,4.80
2021,03,31,08,46,4.90
2021,03,31,08,47,4.90
2021,03,31,08,48,4.90
2021,03,31,08,49,5.00
2021,03,31,08,50,5.00
2021,03,31,08,51,5.10
2021,03,31,08,52,5.10
2021,03,31,08,53,5.10
2021,03,31,08,54,5.10
2021,03,31,08,55,5.10
2021,03,31,08,56,5.10
2021,03,31,08,57,5.10
2021,03,31,08,58,5.10
2021,03,31,08,59,5.20
2021,03,31,09,00,5.20
2021,03,31,09,01,5.20
2021,03,31,09,02,5.20
2021,03,31,09,03,5.20
2021,03,31,09,04,5.20
2021,03,31,09,05,5.30
2021,03,31,09,06,5.30
2021,03,31,09,07,5.30
2021,03,31,09,08,5.40
2021,03,31,09,09,5.40
2021,03,31,09,10,5.40
2021,03,31,09,11,5.40
2021,03,31,09,12,5.40
2021,03,31,09,13,5.50
2021,03,31,09,14,5.50
2021,03,31,09,15,5.60
2021,03,31,09,16,5.60
2021,03,31,09,17,5.60
2021,03,31,09,18,5.60
2021,03,31,09,19,5.70
2021,03,31,09,20,5.70
2021,03,31,09,21,5.70
2021,03,31,09,22,5.70
2021,03,31,09,23,5.70
2021,03,31,09,24,5.70
2021,03,31,09,25,5.70
2021,03,31,09,26,5.60
2021,03,31,09,27,5.70
2021,03,31,09,28,5.70
2021,03,31,09,29,5.70
2021,03,31,09,30,5.70
2021,03,31,09,31,5.70
2021,03,31,09,32,5.60
2021,03,31,09,33,5.60
2021,03,31,09,34,5.60
2021,03,31,09,35,5.70
2021,03,31,09,36,5.60
2021,03,31,09,37,5.70
2021,03,31,09,38,5.70
2021,03,31,09,39,5.70
2021,03,31,09,40,5.70
2021,03,31,09,41,5.70
2021,03,31,09,42,5.70
2021,03,31,09,43,5.70
2021,03,31,09,44,5.70
2021,03,31,09,45,5.70
2021,03,31,09,46,5.80
2021,03,31,09,47,5.80
2021,03,31,09,48,5.80
2021,03,31,09,49,5.80
2021,03,31,09,50,5.80
2021,03,31,09,51,5.90
2021,03,31,09,52,5.90
2021,03,31,09,53,6.00
2021,03,31,09,54,6.00
2021,03,31,09,55,6.00
2021,03,31,09,56,6.10
2021,03,31,09,57,6.10
2021,03,31,09,58,6.00
2021,03,31,09,59,6.00
2021,03,31,10,00,6.00
2021,03,31,10,01,6.10
2021,03,31,10,02,6.10
2021,03,31,10,03,6.10
2021,03,31,10,04,6.10
2021,03,31,10,05,6.10
2021,03,31,10,06,6.20
2021,03,31,10,07,6.20
2021,03,31,10,08,6.30
2021,03,31,10,09,6.30
2021,03,31,10,10,6.30
2021,03,31,10,11,6.30
2021,03,31,10,12,6.40
2021,03,31,10,13,6.50
2021,03,31,10,14,6.60
2021,03,31,10,15,6.70
2021,03,31,10,16,6.80
2021,03,31,10,17,6.80
2021,03,31,10,18,6.90
2021,03,31,10,19,7.00
2021,03,31,10,20,7.00
2021,03,31,10,21,6.90
2021,03,31,10,22,6.90
2021,03,31,10,23,6.90
2021,03,31,10,24,7.00
2021,03,31,10,25,7.00
2021,03,31,10,26,7.10
2021,03,31,10,27,7.10
2021,03,31,10,28,7.00
2021,03,31,10,29,7.10
2021,03,31,10,30,7.10
2021,03,31,10,31,7.10
2021,03,31,10,32,7.20
2021,03,31,10,33,7.20
2021,03,31,10,34,7.20
2021,03,31,10,35,7.20
2021,03,31,10,36,7.20
2021,03,31,10,37,7.20
2021,03,31,10,38,7.30
2021,03,31,10,39,7.30
2021,03,31,10,40,7.30
2021,03,31,10,41,7.30
2021,03,31,10,42,7.30
2021,03,31,10,43,7.30
2021,03,31,10,44,7.20
2021,03,31,10,45,7.30
2021,03,31,10,46,7.30
2021,03,31,10,47,7.30
2021,03,31,10,48,7.40
2021,03,31,10,49,7.40
2021,03,31,10,50,7.50
2021,03,31,10,51,7.70
2021,03,31,10,52,7.80
2021,03,31,10,53,7.80
2021,03,31,10,54,7.80
2021,03,31,10,55,7.80
2021,03,31,10,56,7.90
2021,03,31,10,57,7.80
2021,03,31,10,58,7.80
2021,03,31,10,59,7.80
2021,03,31,11,00,7.70
2021,03,31,11,01,7.70
2021,03,31,11,02,7.70
2021,03,31,11,03,7.70
2021,03,31,11,04,7.70
2021,03,31,11,05,7.60
2021,03,31,11,06,7.60
2021,03,31,11,07,7.60
2021,03,31,11,08,7.60
2021,03,31,11,09,7.60
2021,03,31,11,10,7.50
2021,03,31,11,11,7.50
2021,03,31,11,12,7.50
2021,03,31,11,13,7.50
2021,03,31,11,14,7.60
2021,03,31,11,15,7.60
2021,03,31,11,16,7.60
2021,03,31,11,17,7.60
2021,03,31,11,18,7.60
2021,03,31,11,19,7.60
2021,03,31,11,20,7.50
2021,03,31,11,21,7.40
2021,03,31,11,22,7.40
2021,03,31,11,23,7.50
2021,03,31,11,24,7.50
2021,03,31,11,25,7.60
2021,03,31,11,26,7.60
2021,03,31,11,27,7.60
2021,03,31,11,28,7.60
2021,03,31,11,29,7.60
2021,03,31,11,30,7.60
2021,03,31,11,31,7.70
2021,03,31,11,32,7.80
2021,03,31,11,33,7.80
2021,03,31,11,34,7.80
2021,03,31,11,35,7.90
2021,03,31,11,36,7.90
2021,03,31,11,37,7.90
2021,03,31,11,38,8.00
2021,03,31,11,39,7.90
2021,03,31,11,40,7.90
2021,03,31,11,41,7.80
2021,03,31,11,42,7.90
2021,03,31,11,43,7.90
2021,03,31,11,44,7.80
2021,03,31,11,45,7.90
2021,03,31,11,46,7.90
2021,03,31,11,47,7.80
2021,03,31,11,48,7.80
2021,03,31,11,49,7.80
2021,03,31,11,50,7.80
2021,03,31,11,51,7.80
2021,03,31,11,52,7.80
2021,03,31,11,53,7.80
2021,03,31,11,54,7.80
2021,03,31,11,55,7.80
2021,03,31,11,56,7.80
2021,03,31,11,57,7.80
2021,03,31,11,58,7.90
2021,03,31,11,59,7.90
2021,03,31,12,00,7.90
2021,03,31,12,01,7.90
2021,03,31,12,02,8.00
2021,03,31,12,03,8.00
2021,03,31,12,04,8.00
2021,03,31,12,05,8.10
2021,03,31,12,06,8.20
2021,03,31,12,07,8.20
2021,03,31,12,08,8.20
2021,03,31,12,09,8.30
2021,03,31,12,10,8.30
2021,03,31,12,11,8.40
2021,03,31,12,12,8.40
2021,03,31,12,13,8.40
2021,03,31,12,14,8.40
2021,03,31,12,15,8.40
2021,03,31,12,16,8.50
2021,03,31,12,17,8.60
2021,03,31,12,18,8.60
2021,03,31,12,19,8.70
2021,03,31,12,20,8.60
2021,03,31,12,21,8.60
2021,03,31,12,22,8.60
2021,03,31,12,23,8.60
2021,03,31,12,24,8.60
2021,03,31,12,25,8.60
2021,03,31,12,26,8.60
2021,03,31,12,27,8.60
2021,03,31,12,28,8.60
2021,03,31,12,29,8.60
2021,03,31,12,30,8.70
2021,03,31,12,31,8.70
2021,03,31,12,32,8.70
2021,03,31,12,33,8.70
2021,03,31,12,34,8.70
2021,03,31,12,35,8.60
2021,03,31,12,36,8.60
2021,03,31,12,37,8.50
2021,03,31,12,38,8.50
2021,03,31,12,39,8.50
2021,03,31,12,40,8.60
2021,03,31,12,41,8.50
2021,03,31,12,42,8.40
2021,03,31,12,43,8.40
2021,03,31,12,44,8.40
2021,03,31,12,45,8.50
2021,03,31,12,46,8.50
2021,03,31,12,47,8.50
2021,03,31,12,48,8.40
2021,03,31,12,49,8.40
2021,03,31,12,50,8.40
2021,03,31,12,51,8.30
2021,03,31,12,52,8.40
2021,03,31,12,53,8.40
2021,03,31,12,54,8.30
2021,03,31,12,55,8.30
2021,03,31,12,56,8.30
2021,03,31,12,57,8.20
2021,03,31,12,58,8.20
2021,03,31,12,59,8.20
2021,03,31,13,00,8.20
2021,03,31,13,01,8.30
2021,03,31,13,02,8.30
2021,03,31,13,03,8.30
2021,03,31,13,04,8.30
2021,03,31,13,05,8.40
2021,03,31,13,06,8.40
2021,03,31,13,07,8.40
2021,03,31,13,08,8.40
2021,03,31,13,09,8.50
2021,03,31,13,10,8.50
2021,03,31,13,11,8.60
2021,03,31,13,12,8.70
2021,03,31,13,13,8.80
2021,03,31,13,14,8.80
2021,03,31,13,15,8.90
2021,03,31,13,16,8.80
2021,03,31,13,17,8.80
2021,03,31,13,18,8.80
2021,03,31,13,19,8.70
2021,03,31,13,20,8.70
2021,03,31,13,21,8.70
2021,03,31,13,22,8.60
2021,03,31,13,23,8.60
2021,03,31,13,24,8.60
2021,03,31,13,25,8.70
2021,03,31,13,26,8.70
2021,03,31,13,27,8.70
2021,03,31,13,28,8.70
2021,03,31,13,29,8.80
2021,03,31,13,30,8.70
2021,03,31,13,31,8.70
2021,03,31,13,32,8.70
2021,03,31,13,33,8.80
2021,03,31,13,34,8.80
2021,03,31,13,35,8.80
2021,03,31,13,36,8.70
2021,03,31,13,37,8.70
2021,03,31,13,38,8.80
2021,03,31,13,39,8.90
2021,03,31,13,40,8.90
2021,03,31,13,41,8.90
2021,03,31,13,42,8.90
2021,03,31,13,43,8.90
2021,03,31,13,44,8.90
2021,03,31,13,45,8.90
2021,03,31,13,46,9.00
2021,03,31,13,47,9.00
2021,03,31,13,48,8.90
2021,03,31,13,49,8.90
2021,03,31,13,50,8.90
2021,03,31,13,51,8.90
2021,03,31,13,52,8.90
2021,03,31,13,53,8.80
2021,03,31,13,54,8.80
2021,03,31,13,55,8.70
2021,03,31,13,56,8.70
2021,03,31,13,57,8.70
2021,03,31,13,58,8.70
2021,03,31,13,59,8.70
2021,03,31,14,00,8.60
2021,03,31,14,01,8.70
2021,03,31,14,02,8.70
2021,03,31,14,03,8.80
2021,03,31,14,04,8.80
2021,03,31,14,05,8.80
2021,03,31,14,06,8.80
2021,03,31,14,07,8.80
2021,03,31,14,08,8.80
2021,03,31,14,09,8.80
2021,03,31,14,10,8.80
2021,03,31,14,11,8.80
2021,03,31,14,12,8.80
2021,03,31,14,13,8.90
2021,03,31,14,14,8.90
2021,03,31,14,15,8.90
2021,03,31,14,16,8.90
2021,03,31,14,17,8.90
2021,03,31,14,18,8.90
2021,03,31,14,19,8.90
2021,03,31,14,20,8.90
2021,03,31,14,21,8.90
2021,03,31,14,22,9.00
2021,03,31,14,23,9.00
2021,03,31,14,24,9.00
2021,03,31,14,25,9.00
2021,03,31,14,26,9.00
2021,03,31,14,27,9.00
2021,03,31,14,28,9.00
2021,03,31,14,29,9.10
2021,03,31,14,30,9.10
2021,03,31,14,31,9.10
2021,03,31,14,32,9.10
2021,03,31,14,33,9.10
2021,03,31,14,34,9.10
2021,03,31,14,35,9.10
2021,03,31,14,36,9.10
2021,03,31,14,37,9.10
2021,03,31,14,38,9.10
2021,03,31,14,39,9.10
2021,03,31,14,40,9.10
2021,03,31,14,41,9.10
2021,03,31,14,42,9.10
2021,03,31,14,43,9.10
2021,03,31,14,44,9.10
2021,03,31,14,45,9.20
2021,03,31,14,46,9.20
2021,03,31,14,47,9.20
2021,03,31,14,48,9.20
2021,03,31,14,49,9.30
2021,03,31,14,50,9.30
2021,03,31,14,51,9.30
2021,03,31,14,52,9.40
2021,03,31,14,53,9.40
2021,03,31,14,54,9.40
2021,03,31,14,55,9.30
2021,03,31,14,56,9.30
2021,03,31,14,57,9.30
2021,03,31,14,58,9.30
2021,03,31,14,59,9.30
2021,03,31,15,00,9.30
2021,03,31,15,01,9.30
2021,03,31,15,02,9.30
2021,03,31,15,03,9.40
2021,03,31,15,04,9.50
2021,03,31,15,05,9.50
2021,03,31,15,06,9.60
2021,03,31,15,07,9.60
2021,03,31,15,08,9.70
2021,03,31,15,09,9.70
2021,03,31,15,10,9.70
2021,03,31,15,11,9.70
2021,03,31,15,12,9.80
2021,03,31,15,13,9.80
2021,03,31,15,14,9.80
2021,03,31,15,15,9.90
2021,03,31,15,16,9.90
2021,03,31,15,17,9.90
2021,03,31,15,18,9.90
2021,03,31,15,19,9.90
2021,03,31,15,20,9.90
2021,03,31,15,21,9.90
2021,03,31,15,22,9.90
2021,03,31,15,23,9.80
2021,03,31,15,24,9.80
2021,03,31,15,25,9.80
2021,03,31,15,26,9.80
2021,03,31,15,27,9.90
2021,03,31,15,28,10.00
2021,03,31,15,29,10.10
2021,03,31,15,30,10.20
2021,03,31,15,31,10.20
2021,03,31,15,32,10.30
2021,03,31,15,33,10.30
2021,03,31,15,34,10.30
2021,03,31,15,35,10.30
2021,03,31,15,36,10.30
2021,03,31,15,37,10.30
2021,03,31,15,38,10.30
2021,03,31,15,39,10.30
2021,03,31,15,40,10.20
2021,03,31,15,41,10.20
2021,03,31,15,42,10.20
2021,03,31,15,43,10.10
2021,03,31,15,44,10.10
2021,03,31,15,45,10.00
2021,03,31,15,46,10.00
2021,03,31,15,47,9.90
2021,03,31,15,48,9.90
2021,03,31,15,49,9.90
2021,03,31,15,50,9.90
2021,03,31,15,51,9.90
2021,03,31,15,52,9.90
2021,03,31,15,53,9.90
2021,03,31,15,54,9.90
2021,03,31,15,55,9.90
2021,03,31,15,56,9.80
2021,03,31,15,57,9.80
2021,03,31,15,58,9.80
2021,03,31,15,59,9.90
2021,03,31,16,00,9.90
2021,03,31,16,01,9.90
2021,03,31,16,02,9.90
2021,03,31,16,03,9.80
2021,03,31,16,04,9.80
2021,03,31,16,05,9.80
2021,03,31,16,06,9.80
2021,03,31,16,07,9.80
2021,03,31,16,08,9.80
2021,03,31,16,09,9.90
2021,03,31,16,10,9.80
2021,03,31,16,11,9.80
2021,03,31,16,12,9.90
2021,03,31,16,13,9.90
2021,03,31,16,14,9.90
2021,03,31,16,15,10.00
2021,03,31,16,16,10.00
2021,03,31,16,17,10.10
2021,03,31,16,18,10.10
2021,03,31,16,19,10.20
2021,03,31,16,20,10.20
2021,03,31,16,21,10.30
2021,03,31,16,22,10.30
2021,03,31,16,23,10.30
2021,03,31,16,24,10.30
2021,03,31,16,25,10.20
2021,03,31,16,26,10.20
2021,03,31,16,27,10.20
2021,03,31,16,28,10.30
2021,03,31,16,29,10.30
2021,03,31,16,30,10.30
2021,03,31,16,31,10.30
2021,03,31,16,32,10.30
2021,03,31,16,33,10.30
2021,03,31,16,34,10.30
2021,03,31,16,35,10.30
2021,03,31,16,36,10.20
2021,03,31,16,37,10.20
2021,03,31,16,38,10.10
2021,03,31,16,39,10.10
2021,03,31,16,40,10.10
2021,03,31,16,41,10.10
2021,03,31,16,42,10.10
2021,03,31,16,43,10.20
2021,03,31,16,44,10.20
2021,03,31,16,45,10.20
2021,03,31,16,46,10.30
2021,03,31,16,47,10.30
2021,03,31,16,48,10.30
2021,03,31,16,49,10.30
2021,03,31,16,50,10.20
2021,03,31,16,51,10.30
2021,03,31,16,52,10.20
2021,03,31,16,53,10.20
2021,03,31,16,54,10.20
2021,03,31,16,55,10.20
2021,03,31,16,56,10.30
2021,03,31,16,57,10.30
2021,03,31,16,58,10.30
2021,03,31,16,59,10.30
2021,03,31,17,00,10.30
2021,03,31,17,01,10.30
2021,03,31,17,02,10.30
2021,03,31,17,03,10.30
2021,03,31,17,04,10.30
2021,03,31,17,05,10.30
2021,03,31,17,06,10.30
2021,03,31,17,07,10.30
2021,03,31,17,08,10.40
2021,03,31,17,09,10.30
2021,03,31,17,10,10.30
2021,03,31,17,11,10.30
2021,03,31,17,12,10.30
2021,03,31,17,13,10.30
2021,03,31,17,14,10.20
2021,03,31,17,15,10.20
2021,03,31,17,16,10.20
2021,03,31,17,17,10.20
2021,03,31,17,18,10.20
2021,03,31,17,19,10.20
2021,03,31,17,20,10.20
2021,03,31,17,21,10.20
2021,03,31,17,22,10.10
2021,03,31,17,23,10.10
2021,03,31,17,24,10.10
2021,03,31,17,25,10.10
2021,03,31,17,26,10.10
2021,03,31,17,27,10.10
2021,03,31,17,28,10.10
2021,03,31,17,29,10.00
2021,03,31,17,30,10.00
2021,03,31,17,31,10.00
2021,03,31,17,32,9.90
2021,03,31,17,33,9.80
2021,03,31,17,34,9.80
2021,03,31,17,35,9.80
2021,03,31,17,36,9.70
2021,03,31,17,37,9.70
2021,03,31,17,38,9.70
2021,03,31,17,39,9.70
2021,03,31,17,40,9.60
2021,03,31,17,41,9.60
2021,03,31,17,42,9.60
2021,03,31,17,43,9.60
2021,03,31,17,44,9.60
2021,03,31,17,45,9.60
2021,03,31,17,46,9.60
2021,03,31,17,47,9.60
2021,03,31,17,48,9.60
2021,03,31,17,49,9.60
2021,03,31,17,50,9.60
2021,03,31,17,51,9.70
2021,03,31,17,52,9.70
2021,03,31,17,53,9.70
2021,03,31,17,54,9.70
2021,03,31,17,55,9.70
2021,03,31,17,56,9.70
2021,03,31,17,57,9.70
2021,03,31,17,58,9.70
2021,03,31,17,59,9.70
2021,03,31,18,00,9.70
2021,03,31,18,01,9.70
2021,03,31,18,02,9.70
2021,03,31,18,03,9.80
2021,03,31,18,04,9.80
2021,03,31,18,05,9.80
2021,03,31,18,06,9.80
2021,03,31,18,07,9.80
2021,03,31,18,08,9.80
2021,03,31,18,09,9.90
2021,03,31,18,10,9.90
2021,03,31,18,11,9.90
2021,03,31,18,12,9.90
2021,03,31,18,13,9.90
2021,03,31,18,14,10.00
2021,03,31,18,15,10.00
2021,03,31,18,16,9.90
2021,03,31,18,17,10.00
2021,03,31,18,18,10.00
2021,03,31,18,19,10.00
2021,03,31,18,20,10.00
2021,03,31,18,21,10.00
2021,03,31,18,22,10.00
2021,03,31,18,23,10.00
2021,03,31,18,24,10.00
2021,03,31,18,25,10.00
2021,03,31,18,26,10.00
2021,03,31,18,27,10.00
2021,03,31,18,28,10.10
2021,03,31,18,29,10.10
2021,03,31,18,30,10.10
2021,03,31,18,31,10.10
2021,03,31,18,32,10.10
2021,03,31,18,33,10.10
2021,03,31,18,34,10.10
2021,03,31,18,35,10.10
2021,03,31,18,36,10.10
2021,03,31,18,37,10.10
2021,03,31,18,38,10.10
2021,03,31,18,39,10.20
2021,03,31,18,40,10.20
2021,03,31,18,41,10.20
2021,03,31,18,42,10.20
2021,03,31,18,43,10.20
2021,03,31,18,44,10.20
2021,03,31,18,45,10.20
2021,03,31,18,46,10.20
2021,03,31,18,47,10.20
2021,03,31,18,48,10.20
2021,03,31,18,49,10.20
2021,03,31,18,50,10.20
2021,03,31,18,51,10.20
2021,03,31,18,52,10.20
2021,03,31,18,53,10.20
2021,03,31,18,54,10.20
2021,03,31,18,55,10.20
